FW4728 Weather Reports


Display with metric or nautical units.
time (UTC)temp
F
wind
direction
speed
MPH
gust
MPH
rain 1hr
in
rain 24hr
in
rain mn
in
humidity
%
barometer
mb
20190617231009 75 105 0.0 1.0 0.00 0.00 0.00 73 1013.8
20190617230506 75 54 1.0 3.0 0.00 0.00 0.00 73 1013.9
20190617230005 75 117 1.0 2.0 0.00 0.00 0.00 72 1013.9
20190617225508 75 111 2.0 3.0 0.00 0.00 0.00 72 1014.1
20190617225005 75 85 1.0 2.0 0.00 0.00 0.00 72 1013.9
20190617224508 75 73 2.0 3.0 0.00 0.00 0.00 72 1013.9
20190617224005 75 93 1.0 2.0 0.00 0.00 0.00 71 1013.9
20190617223505 75 109 0.0 1.0 0.00 0.00 0.00 71 1014.0
20190617223008 76 109 2.0 3.0 0.00 0.00 0.00 71 1013.9
20190617222509 76 70 2.0 3.0 0.00 0.00 0.00 71 1014.1
20190617222004 76 102 1.0 3.0 0.00 0.00 0.00 72 1014.1
20190617221507 76 67 1.0 3.0 0.00 0.00 0.00 72 1014.0
20190617221009 75 82 2.0 2.0 0.00 0.00 0.00 71 1014.0
20190617220505 76 75 2.0 3.0 0.00 0.00 0.00 70 1014.1
20190617220007 76 129 1.0 3.0 0.00 0.00 0.00 71 1014.1
20190617215508 76 127 2.0 5.0 0.00 0.00 0.00 72 1014.1
20190617215004 75 66 1.0 3.0 0.00 0.00 0.00 71 1014.0
20190617214505 76 45 1.0 4.0 0.00 0.00 0.00 72 1014.1
20190617214008 76 104 2.0 5.0 0.00 0.00 0.00 71 1014.1
20190617213505 76 145 0.0 0.0 0.00 0.00 0.00 71 1014.1
20190617213008 76 15 2.0 4.0 0.00 0.00 0.00 70 1014.2
20190617212507 76 88 2.0 6.0 0.00 0.00 0.00 70 1014.1
20190617212010 76 106 2.0 6.0 0.00 0.00 0.00 71 1014.1
20190617211506 76 86 2.0 4.0 0.00 0.00 0.00 73 1014.2
20190617211009 76 82 1.0 3.0 0.00 0.00 0.00 70 1014.2
20190617210504 76 25 2.0 4.0 0.00 0.00 0.00 70 1014.2
20190617210009 76 106 2.0 6.0 0.00 0.00 0.00 72 1014.3
20190617205506 76 27 2.0 5.0 0.00 0.00 0.00 73 1014.2
20190617205008 75 143 0.0 1.0 0.00 0.00 0.00 74 1014.3
20190617204505 75 55 1.0 1.0 0.00 0.00 0.00 71 1014.2
20190617204007 75 51 1.0 3.0 0.00 0.00 0.00 72 1014.3
20190617203506 75 60 3.0 7.0 0.00 0.00 0.00 71 1014.4
20190617203008 75 66 1.0 2.0 0.00 0.00 0.00 73 1014.3
20190617202505 75 73 2.0 3.0 0.00 0.00 0.00 71 1014.3
20190617202005 75 77 2.0 3.0 0.00 0.00 0.00 73 1014.2
20190617201506 74 104 2.0 4.0 0.00 0.00 0.00 74 1014.2
20190617201023 74 18 2.0 3.0 0.00 0.00 0.00 72 1014.1
20190617200506 75 46 2.0 4.0 0.00 0.00 0.00 73 1014.3
20190617200008 75 76 2.0 4.0 0.00 0.00 0.00 75 1014.2
20190617195510 75 114 2.0 3.0 0.00 0.00 0.00 74 1014.3
20190617195008 74 106 2.0 3.0 0.00 0.00 0.00 75 1014.1
20190617194504 74 157 2.0 3.0 0.00 0.00 0.00 72 1014.2
20190617194008 74 49 2.0 4.0 0.00 0.00 0.00 73 1014.2
20190617193506 74 0 0.0 1.0 0.00 0.00 0.00 72 1014.4
20190617193005 74 43 2.0 4.0 0.00 0.00 0.00 76 1014.3
20190617192507 74 32 2.0 4.0 0.00 0.00 0.00 74 1014.3
20190617192006 74 25 1.0 1.0 0.00 0.00 0.00 73 1014.4
20190617191508 73 86 0.0 2.0 0.00 0.00 0.00 76 1014.3
20190617191009 73 15 1.0 3.0 0.00 0.00 0.00 75 1014.4
20190617190506 73 55 2.0 3.0 0.00 0.00 0.00 74 1014.5
20190617190005 73 226 0.0 1.0 0.00 0.00 0.00 73 1014.7
20190617185506 73 107 2.0 5.0 0.00 0.00 0.00 74 1014.7
20190617185007 73 103 2.0 6.0 0.00 0.00 0.00 76 1014.7
20190617184509 72 112 1.0 1.0 0.00 0.00 0.00 75 1014.8
20190617184004 72 18 1.0 1.0 0.00 0.00 0.00 75 1014.7
20190617183506 72 44 1.0 1.0 0.00 0.00 0.00 77 1014.7
20190617183008 72 21 3.0 4.0 0.00 0.00 0.00 77 1014.9
20190617182508 71 43 2.0 3.0 0.00 0.00 0.00 79 1015.0
20190617182004 71 89 1.0 3.0 0.00 0.00 0.00 78 1015.0
20190617181507 71 0 2.0 3.0 0.00 0.00 0.00 77 1015.3
20190617181006 71 9 3.0 5.0 0.00 0.00 0.00 78 1015.2
20190617180508 70 99 2.0 4.0 0.00 0.00 0.00 79 1015.4
20190617180006 70 84 3.0 4.0 0.00 0.00 0.00 79 1015.4
20190617175508 70 31 2.0 5.0 0.00 0.00 0.00 79 1015.6
20190617175007 70 141 3.0 4.0 0.00 0.00 0.00 79 1015.7
20190617174510 69 19 1.0 2.0 0.00 0.00 0.00 81 1015.6
20190617174009 69 225 0.0 1.0 0.00 0.00 0.00 80 1015.6
20190617173506 69 69 1.0 2.0 0.00 0.00 0.00 80 1015.7
20190617173004 68 65 2.0 4.0 0.00 0.00 0.00 84 1015.8
20190617172507 68 120 2.0 3.0 0.00 0.00 0.00 83 1015.7
20190617172008 67 39 1.0 3.0 0.00 0.00 0.00 83 1015.7
20190617171508 67 95 3.0 4.0 0.00 0.00 0.00 82 1015.8
20190617171004 67 38 3.0 4.0 0.00 0.00 0.00 84 1015.7
20190617170506 67 331 1.0 2.0 0.00 0.00 0.00 84 1015.8
20190617170008 67 32 0.0 2.0 0.00 0.00 0.00 85 1015.8
20190617165508 67 32 1.0 2.0 0.00 0.00 0.00 84 1015.9
20190617165003 67 36 0.0 1.0 0.00 0.00 0.00 85 1015.8
20190617164505 67 36 1.0 3.0 0.00 0.00 0.00 85 1015.7
20190617164007 66 3 1.0 4.0 0.00 0.00 0.00 85 1015.7
20190617163510 66 94 0.0 1.0 0.00 0.00 0.00 87 1015.7
20190617163007 66 65 0.0 1.0 0.00 0.00 0.00 86 1015.7
20190617162505 65 66 3.0 4.0 0.00 0.00 0.00 87 1015.6
20190617162007 65 64 2.0 4.0 0.00 0.00 0.00 86 1015.7
20190617161507 65 71 1.0 0.0 0.00 0.00 0.00 86 1015.5
20190617161005 65 66 2.0 3.0 0.00 0.00 0.00 87 1015.6
20190617160505 65 63 1.0 3.0 0.00 0.00 0.00 88 1015.7
20190617160007 65 104 1.0 2.0 0.00 0.00 0.00 87 1015.8
20190617155508 65 94 1.0 1.0 0.00 0.00 0.00 87 1015.8
20190617155005 65 42 1.0 2.0 0.00 0.00 0.00 87 1016.0
20190617154507 65 101 2.0 3.0 0.00 0.00 0.00 88 1015.9
20190617154009 64 145 1.0 3.0 0.00 0.00 0.00 88 1015.7
20190617153506 64 73 2.0 3.0 0.00 0.00 0.00 89 1015.8
20190617153006 64 83 1.0 3.0 0.00 0.00 0.00 90 1015.8
20190617152505 64 60 2.0 4.0 0.00 0.00 0.00 89 1015.6
20190617152008 64 60 2.0 3.0 0.00 0.00 0.00 90 1015.6
20190617151504 64 40 2.0 3.0 0.00 0.01 0.00 89 1015.7
20190617151006 64 64 1.0 3.0 0.00 0.01 0.00 89 1015.5
20190617150508 64 124 3.0 5.0 0.00 0.01 0.00 89 1015.3
20190617150005 64 112 2.0 4.0 0.00 0.01 0.00 90 1015.3
20190617145508 63 120 2.0 3.0 0.00 0.01 0.00 90 1015.4
20190617145005 63 87 2.0 4.0 0.00 0.01 0.00 91 1015.3
20190617144508 63 63 3.0 5.0 0.00 0.01 0.00 90 1015.5
20190617144008 63 124 2.0 6.0 0.00 0.01 0.00 91 1015.5
20190617143508 63 96 2.0 4.0 0.00 0.01 0.00 91 1015.3
20190617143005 63 59 0.0 2.0 0.00 0.01 0.00 91 1015.1
20190617142505 63 37 2.0 3.0 0.00 0.01 0.00 91 1015.3
20190617142008 63 66 2.0 3.0 0.00 0.01 0.00 91 1015.2
20190617141504 63 23 2.0 5.0 0.00 0.01 0.00 92 1015.2
20190617141005 63 34 2.0 2.0 0.00 0.01 0.00 92 1015.1
20190617140506 63 42 2.0 2.0 0.00 0.01 0.00 92 1015.1
20190617140007 63 61 2.0 3.0 0.00 0.01 0.00 93 1015.2
20190617135504 62 90 1.0 2.0 0.00 0.01 0.00 93 1015.2
20190617135008 62 129 0.0 3.0 0.00 0.01 0.00 93 1015.2
20190617134504 62 137 2.0 3.0 0.00 0.01 0.00 93 1015.1
20190617134004 62 72 1.0 2.0 0.00 0.01 0.00 93 1015.3
20190617133510 62 68 2.0 3.0 0.00 0.01 0.00 94 1015.1
20190617133007 62 27 1.0 3.0 0.00 0.01 0.00 94 1015.0
20190617132506 62 27 2.0 5.0 0.00 0.01 0.00 94 1015.0
20190617132009 62 16 2.0 3.0 0.00 0.01 0.00 94 1014.9
20190617131507 62 34 1.0 2.0 0.00 0.01 0.00 94 1014.9
20190617131004 62 34 1.0 2.0 0.00 0.01 0.00 94 1015.0
20190617130509 62 33 0.0 1.0 0.00 0.01 0.00 94 1015.0
20190617130005 62 33 1.0 3.0 0.00 0.01 0.00 94 1015.0
20190617125508 62 32 1.0 1.0 0.00 0.01 0.00 95 1015.1
20190617125003 62 31 1.0 0.0 0.00 0.01 0.00 95 1015.0
20190617124504 62 31 0.0 2.0 0.00 0.01 0.00 95 1015.0
20190617124007 62 31 1.0 3.0 0.00 0.01 0.00 95 1015.0
20190617123505 62 45 1.0 1.0 0.00 0.01 0.00 96 1014.8
20190617123007 62 42 2.0 3.0 0.00 0.01 0.00 96 1014.9
20190617122508 62 30 1.0 3.0 0.00 0.01 0.00 96 1014.9
20190617122005 62 21 1.0 3.0 0.00 0.01 0.00 97 1014.7
20190617121507 62 28 1.0 2.0 0.00 0.01 0.00 97 1014.8
20190617121003 62 28 1.0 2.0 0.00 0.01 0.00 97 1014.8
20190617120505 62 45 2.0 4.0 0.00 0.01 0.00 97 1014.8
20190617120005 62 45 1.0 1.0 0.00 0.01 0.00 97 1014.8
20190617115506 62 45 1.0 2.0 0.00 0.01 0.00 98 1014.8
20190617115007 61 45 1.0 2.0 0.00 0.01 0.00 97 1014.8
20190617114503 61 45 0.0 0.0 0.00 0.01 0.00 98 1014.7
20190617114005 61 45 0.0 1.0 0.00 0.01 0.00 98 1014.7
20190617113507 61 45 0.0 1.0 0.00 0.01 0.00 98 1014.7
20190617113006 61 45 0.0 1.0 0.00 0.01 0.00 98 1014.5
20190617112505 61 45 0.0 1.0 0.00 0.01 0.00 98 1014.5
20190617112005 61 45 0.0 0.0 0.00 0.01 0.00 98 1014.3
20190617111503 61 45 0.0 0.0 0.00 0.01 0.00 98 1014.3
20190617111005 61 45 0.0 0.0 0.00 0.01 0.00 98 1014.1
20190617110527 61 45 0.0 1.0 0.00 0.01 0.00 98 1014.1
20190617110009 61 45 0.0 1.0 0.00 0.01 0.00 98 1014.0
20190617105506 61 45 0.0 1.0 0.00 0.01 0.00 98 1013.9
20190617105009 61 45 1.0 2.0 0.00 0.01 0.00 98 1013.9
20190617104504 61 45 0.0 1.0 0.00 0.01 0.00 98 1013.9
20190617104008 61 45 2.0 4.0 0.00 0.01 0.00 98 1013.7
20190617103504 61 84 0.0 1.0 0.00 0.01 0.00 98 1013.8
20190617103006 61 84 0.0 0.0 0.00 0.01 0.00 99 1013.7
20190617102507 61 84 1.0 1.0 0.00 0.01 0.00 99 1013.8
20190617102004 61 84 0.0 1.0 0.00 0.01 0.00 99 1013.7
20190617101506 61 84 0.0 0.0 0.00 0.01 0.00 99 1013.6
20190617101007 61 84 0.0 1.0 0.00 0.01 0.00 98 1013.5
20190617100503 61 84 0.0 1.0 0.00 0.01 0.00 99 1013.6
20190617100003 61 84 0.0 0.0 0.00 0.01 0.00 99 1013.8
20190617095506 61 84 0.0 0.0 0.00 0.01 0.00 98 1013.6
20190617095008 61 84 0.0 1.0 0.00 0.01 0.00 98 1013.6
20190617094505 61 84 0.0 0.0 0.00 0.01 0.00 98 1013.7
20190617094009 61 84 0.0 1.0 0.00 0.01 0.00 98 1013.7
20190617093505 61 84 0.0 0.0 0.00 0.01 0.00 98 1013.7
20190617093006 61 84 0.0 0.0 0.00 0.01 0.00 99 1013.7
20190617092508 61 84 0.0 0.0 0.00 0.01 0.00 98 1013.6
20190617092004 61 84 1.0 2.0 0.00 0.01 0.00 98 1013.6
20190617091508 61 84 0.0 1.0 0.00 0.01 0.00 99 1013.6
20190617091006 61 81 0.0 1.0 0.00 0.01 0.00 99 1013.3
20190617090503 61 81 0.0 1.0 0.00 0.01 0.00 99 1013.4
20190617090005 61 81 1.0 3.0 0.00 0.01 0.00 99 1013.4
20190617085508 61 41 0.0 1.0 0.00 0.01 0.00 99 1013.3
20190617085004 61 41 0.0 1.0 0.00 0.01 0.00 99 1013.5
20190617084503 61 41 0.0 2.0 0.00 0.01 0.00 99 1013.4
20190617084006 61 41 1.0 2.0 0.00 0.01 0.00 99 1013.3
20190617083508 61 41 1.0 2.0 0.00 0.01 0.00 99 1013.2
20190617083005 61 41 0.0 1.0 0.00 0.01 0.00 99 1013.2
20190617082507 61 71 1.0 2.0 0.00 0.01 0.00 100 1013.2
20190617082008 61 33 0.0 1.0 0.00 0.01 0.00 100 1013.1
20190617081504 61 33 1.0 2.0 0.00 0.01 0.00 100 1013.1
20190617081004 61 33 0.0 0.0 0.00 0.01 0.00 100 1013.1
20190617080508 60 33 1.0 2.0 0.00 0.01 0.00 100 1012.9
20190617080004 60 33 0.0 0.0 0.00 0.01 0.00 100 1013.0
20190617075507 60 33 0.0 0.0 0.00 0.01 0.00 99 1012.9
20190617075004 60 33 0.0 1.0 0.00 0.01 0.00 99 1012.8
20190617074505 60 33 0.0 1.0 0.00 0.01 0.00 99 1012.9
20190617074007 60 33 0.0 1.0 0.00 0.01 0.00 99 1012.8
20190617073509 60 33 0.0 0.0 0.00 0.01 0.00 99 1012.8
20190617073004 60 33 0.0 0.0 0.00 0.01 0.00 98 1012.8
20190617072506 60 33 0.0 0.0 0.00 0.01 0.00 98 1012.9
20190617072009 60 33 0.0 0.0 0.00 0.01 0.00 98 1012.9
20190617071505 60 33 0.0 0.0 0.00 0.01 0.00 97 1012.9
20190617071006 60 33 0.0 0.0 0.00 0.01 0.00 97 1013.0
20190617070504 60 33 0.0 0.0 0.00 0.01 0.00 97 1013.1
20190617070005 60 33 0.0 0.0 0.00 0.01 0.00 97 1013.1
20190617065505 60 33 0.0 0.0 0.00 0.01 0.00 96 1013.1
20190617065007 60 33 0.0 0.0 0.00 0.01 0.00 96 1013.1
20190617064505 61 33 0.0 0.0 0.00 0.01 0.00 96 1013.1
20190617064003 61 33 0.0 0.0 0.00 0.01 0.00 95 1013.1
20190617063505 61 33 0.0 0.0 0.00 0.01 0.00 95 1013.2
20190617063008 61 33 0.0 0.0 0.00 0.01 0.00 95 1013.1
20190617062509 61 33 0.0 0.0 0.00 0.01 0.00 94 1013.1
20190617062005 62 33 0.0 0.0 0.00 0.01 0.00 94 1013.1
20190617061508 62 33 0.0 0.0 0.00 0.01 0.00 94 1013.0
20190617061005 62 33 0.0 0.0 0.00 0.01 0.00 93 1013.0
20190617060506 62 33 0.0 0.0 0.00 0.01 0.00 93 1013.1
20190617060008 62 33 0.0 1.0 0.00 0.01 0.00 93 1013.0
20190617055503 62 33 0.0 1.0 0.00 0.01 0.00 93 1013.0
20190617055006 62 33 1.0 2.0 0.00 0.01 0.00 93 1013.1
20190617054508 62 33 0.0 0.0 0.00 0.01 0.00 93 1013.1
20190617054006 62 33 0.0 0.0 0.00 0.01 0.00 93 1013.1
20190617053508 63 33 1.0 1.0 0.00 0.01 0.00 92 1013.2
20190617053005 63 61 0.0 0.0 0.00 0.01 0.00 93 1013.2
20190617052508 63 61 0.0 0.0 0.00 0.01 0.00 92 1013.1
20190617052005 63 61 1.0 1.0 0.00 0.01 0.00 92 1013.0
20190617051503 62 62 1.0 2.0 0.00 0.01 0.00 93 1013.1
20190617051005 63 62 1.0 4.0 0.00 0.01 0.00 92 1013.1
20190617050505 63 101 0.0 1.0 0.00 0.01 0.00 92 1012.9
20190617050004 63 100 1.0 2.0 0.00 0.01 0.00 91 1013.0
20190617045504 63 113 1.0 2.0 0.00 0.01 0.01 91 1013.0
20190617045005 63 112 1.0 3.0 0.00 0.01 0.01 91 1013.1
20190617044504 63 75 1.0 2.0 0.00 0.01 0.01 92 1013.1
20190617044007 63 28 1.0 2.0 0.00 0.01 0.01 91 1013.2
20190617043504 63 59 0.0 2.0 0.00 0.01 0.01 91 1013.2
20190617043006 63 42 2.0 5.0 0.00 0.01 0.01 92 1013.2
20190617042503 63 46 0.0 1.0 0.00 0.01 0.01 91 1013.2
20190617042006 63 41 1.0 1.0 0.00 0.01 0.01 92 1013.3
20190617041509 63 73 1.0 3.0 0.00 0.01 0.01 92 1013.2
20190617041006 63 66 2.0 4.0 0.00 0.01 0.01 92 1013.2
20190617040508 63 89 1.0 3.0 0.00 0.01 0.01 92 1013.4
20190617040004 63 71 1.0 4.0 0.00 0.01 0.01 92 1013.4
20190617035506 63 44 2.0 3.0 0.00 0.01 0.01 93 1013.3
20190617035007 63 127 1.0 2.0 0.00 0.01 0.01 93 1013.4
20190617034503 63 126 2.0 3.0 0.00 0.01 0.01 92 1013.3
20190617034006 63 50 1.0 3.0 0.00 0.01 0.01 93 1013.5
20190617033509 63 71 1.0 2.0 0.00 0.01 0.01 93 1013.4
20190617033006 63 72 1.0 2.0 0.00 0.01 0.01 92 1013.3
20190617032504 63 53 1.0 3.0 0.00 0.01 0.01 92 1013.3
20190617032005 64 89 1.0 2.0 0.00 0.01 0.01 92 1013.2
20190617031506 64 68 0.0 1.0 0.00 0.01 0.01 91 1013.1
20190617031009 64 87 1.0 3.0 0.00 0.01 0.01 91 1013.2
20190617030506 64 65 0.0 2.0 0.00 0.01 0.01 91 1013.1
20190617030007 64 113 1.0 2.0 0.00 0.01 0.01 91 1013.1
20190617025503 64 107 2.0 5.0 0.00 0.01 0.01 91 1013.2
20190617025004 64 113 1.0 1.0 0.00 0.01 0.01 91 1013.1
20190617024509 64 114 2.0 4.0 0.00 0.01 0.01 91 1013.0
20190617024006 65 111 1.0 3.0 0.00 0.01 0.01 91 1013.0
20190617023509 65 50 2.0 4.0 0.00 0.01 0.01 91 1013.0
20190617023008 65 80 1.0 3.0 0.00 0.01 0.01 90 1012.9
20190617022505 65 122 1.0 2.0 0.00 0.01 0.01 90 1012.8
20190617022005 65 93 1.0 2.0 0.00 0.01 0.01 90 1012.6
20190617021506 65 97 0.0 1.0 0.00 0.01 0.01 90 1012.7
20190617021006 65 119 2.0 3.0 0.00 0.01 0.01 89 1012.3
20190617020508 65 103 1.0 3.0 0.00 0.02 0.01 90 1012.3
20190617020032 66 96 1.0 2.0 0.00 0.02 0.01 89 1012.3
20190617015508 66 52 1.0 3.0 0.00 0.03 0.01 89 1012.3
20190617015003 66 56 2.0 5.0 0.00 0.03 0.01 89 1012.1
20190617014505 66 50 2.0 4.0 0.00 0.04 0.01 88 1012.0
20190617014007 66 43 2.0 3.0 0.00 0.05 0.01 88 1012.0
20190617013505 66 62 2.0 4.0 0.00 0.06 0.01 88 1011.9
20190617013007 67 39 2.0 4.0 0.00 0.08 0.01 88 1011.9
20190617012503 67 87 1.0 2.0 0.00 0.08 0.01 88 1012.0
20190617012006 67 118 1.0 6.0 0.00 0.09 0.01 87 1011.7
20190617011504 67 82 1.0 3.0 0.00 0.10 0.01 87 1011.5
20190617011007 67 78 2.0 3.0 0.00 0.10 0.01 86 1011.4
20190617010507 67 54 3.0 5.0 0.00 0.12 0.01 86 1011.3
20190617010005 67 49 1.0 2.0 0.00 0.13 0.01 86 1011.2
20190617005506 67 48 1.0 3.0 0.00 0.14 0.01 86 1011.1
20190617005003 68 13 3.0 3.0 0.00 0.15 0.01 85 1011.1
20190617004507 68 38 2.0 3.0 0.00 0.16 0.01 85 1011.1
20190617004009 68 33 2.0 4.0 0.00 0.16 0.01 86 1011.1
20190617003505 68 58 1.0 3.0 0.00 0.17 0.01 86 1011.1
20190617003008 68 38 2.0 2.0 0.00 0.18 0.01 85 1011.1
20190617002504 68 59 2.0 6.0 0.00 0.19 0.01 85 1010.9
20190617002006 68 40 2.0 5.0 0.00 0.23 0.01 86 1010.9
20190617001503 68 52 2.0 3.0 0.00 0.33 0.01 85 1010.8
20190617001006 68 29 2.0 4.0 0.00 0.56 0.01 85 1010.9
20190617000503 68 53 2.0 2.0 0.00 0.76 0.01 85 1010.9
20190617000005 69 43 2.0 4.0 0.00 0.76 0.01 85 1010.9
20190616235508 69 38 2.0 4.0 0.00 0.76 0.01 85 1010.9
20190616235004 69 43 2.0 5.0 0.00 0.76 0.01 84 1011.0
20190616234503 69 79 2.0 5.0 0.00 0.76 0.01 84 1011.0
20190616234005 69 39 1.0 2.0 0.00 0.76 0.01 84 1011.0
20190616233504 69 34 1.0 3.0 0.00 0.76 0.01 84 1010.9
20190616233007 69 32 1.0 3.0 0.00 0.76 0.01 85 1010.8
20190616232504 69 30 1.0 2.0 0.00 0.76 0.01 84 1010.8
20190616232006 69 34 2.0 5.0 0.00 0.76 0.01 83 1010.9
20190616231508 70 17 3.0 6.0 0.00 0.76 0.01 82 1011.0